When you browse on this site, cookies collect data to enhance your experience and personalize the content and advertising you see.
Visit our Privacy Policy to learn more. By continuing to use the site, you agree to this use of cookies and data.
  • In Österreich
  • Länderverzeichnis
  • Für 7 Tage
  • Wassertemperatur
  • Satellitenkarten
  • Wetterkarte
  • News
  • Widgets
  • user-avatar
    Anmelden

    Stündliche Wetter Plotavec

    Heute, 26 Mai, Sonntag

    Zeit Temperatur Niederschläge Wind Luftdruck Luftfeuchtigkeit
    00:00 +13°C° 0 mm 3 m/S 738 mmHg 97%
    01:00 +13°C° 0 mm 2 m/S 738 mmHg 97%
    02:00 +13°C° 0 mm 2 m/S 738 mmHg 97%
    03:00 +13°C° 0 mm 2 m/S 738 mmHg 97%
    04:00 +13°C° 0 mm 2 m/S 738 mmHg 96%
    05:00 +13°C° 0 mm 2 m/S 738 mmHg 95%
    06:00 +14°C° 0 mm 2 m/S 738 mmHg 88%
    07:00 +14°C° 0 mm 3 m/S 738 mmHg 82%
    08:00 +16°C° 0 mm 3 m/S 738 mmHg 75%
    09:00 +17°C° 0 mm 3 m/S 738 mmHg 69%
    10:00 +18°C° 0 mm 4 m/S 738 mmHg 63%
    11:00 +19°C° 0 mm 4 m/S 738 mmHg 57%
    12:00 +19°C° 0 mm 4 m/S 738 mmHg 55%
    13:00 +20°C° 0 mm 4 m/S 738 mmHg 53%
    14:00 +20°C° 0 mm 4 m/S 738 mmHg 51%
    15:00 +20°C° 0 mm 3 m/S 738 mmHg 54%
    16:00 +19°C° 0 mm 3 m/S 738 mmHg 57%
    17:00 +19°C° 0 mm 3 m/S 738 mmHg 60%
    18:00 +17°C° 0 mm 2 m/S 738 mmHg 66%
    19:00 +15°C° 0 mm 2 m/S 738 mmHg 72%
    20:00 +13°C° 0 mm 1 m/S 737 mmHg 79%
    21:00 +12°C° 0 mm 1 m/S 737 mmHg 79%
    22:00 +12°C° 0 mm 1 m/S 737 mmHg 80%
    23:00 +11°C° 0 mm 1 m/S 737 mmHg 81%

    Morgen, 27 Mai, Montag

    Zeit Temperatur Niederschläge Wind Luftdruck Luftfeuchtigkeit
    00:00 +10°C° 0 mm 2 m/S 737 mmHg 83%
    01:00 +10°C° 0 mm 3 m/S 737 mmHg 86%
    02:00 +10°C° 0 mm 4 m/S 737 mmHg 88%
    03:00 +10°C° 0 mm 4 m/S 737 mmHg 87%
    04:00 +10°C° 0 mm 4 m/S 738 mmHg 86%
    05:00 +10°C° 0 mm 5 m/S 738 mmHg 84%
    06:00 +10°C° 0 mm 5 m/S 738 mmHg 81%
    07:00 +11°C° 0 mm 6 m/S 738 mmHg 77%
    08:00 +11°C° 0 mm 6 m/S 739 mmHg 74%
    09:00 +13°C° 0.1 mm 6 m/S 739 mmHg 70%
    10:00 +14°C° 0.1 mm 6 m/S 739 mmHg 66%
    11:00 +14°C° 0.1 mm 7 m/S 740 mmHg 62%
    12:00 +15°C° 0 mm 6 m/S 740 mmHg 62%
    13:00 +15°C° 0 mm 6 m/S 740 mmHg 62%
    14:00 +15°C° 0 mm 6 m/S 741 mmHg 63%
    15:00 +15°C° 0.1 mm 6 m/S 741 mmHg 65%
    16:00 +15°C° 0.1 mm 5 m/S 741 mmHg 68%
    17:00 +15°C° 0.1 mm 5 m/S 741 mmHg 70%
    18:00 +15°C° 0 mm 5 m/S 741 mmHg 74%
    19:00 +14°C° 0 mm 4 m/S 741 mmHg 78%
    20:00 +13°C° 0 mm 4 m/S 741 mmHg 82%
    21:00 +13°C° 0.4 mm 3 m/S 741 mmHg 87%
    22:00 +12°C° 0.4 mm 3 m/S 741 mmHg 91%
    23:00 +13°C° 0.4 mm 2 m/S 741 mmHg 96%

    übermorgen, 28 Mai, Dienstag

    Zeit Temperatur Niederschläge Wind Luftdruck Luftfeuchtigkeit
    00:00 +13°C° 0.2 mm 2 m/S 741 mmHg 96%
    01:00 +13°C° 0.2 mm 3 m/S 742 mmHg 96%
    02:00 +13°C° 0.2 mm 3 m/S 742 mmHg 97%
    03:00 +13°C° 0 mm 3 m/S 742 mmHg 97%
    04:00 +13°C° 0 mm 3 m/S 742 mmHg 97%
    05:00 +13°C° 0 mm 3 m/S 743 mmHg 96%
    06:00 +14°C° 0 mm 3 m/S 743 mmHg 95%
    07:00 +14°C° 0 mm 3 m/S 743 mmHg 93%
    08:00 +16°C° 0 mm 3 m/S 744 mmHg 91%
    09:00 +18°C° 0.1 mm 3 m/S 744 mmHg 85%
    10:00 +19°C° 0.1 mm 3 m/S 744 mmHg 79%
    11:00 +21°C° 0.1 mm 3 m/S 744 mmHg 72%
    12:00 +21°C° 0.4 mm 3 m/S 744 mmHg 72%
    13:00 +22°C° 0.4 mm 4 m/S 744 mmHg 72%
    14:00 +22°C° 0.4 mm 4 m/S 744 mmHg 71%
    15:00 +22°C° 0.3 mm 3 m/S 744 mmHg 73%
    16:00 +22°C° 0.3 mm 3 m/S 744 mmHg 74%
    17:00 +22°C° 0.3 mm 3 m/S 744 mmHg 75%
    18:00 +21°C° 0.3 mm 2 m/S 744 mmHg 80%
    19:00 +20°C° 0.3 mm 2 m/S 744 mmHg 85%
    20:00 +18°C° 0.3 mm 2 m/S 745 mmHg 90%
    21:00 +18°C° 0.4 mm 2 m/S 745 mmHg 92%
    22:00 +18°C° 0.4 mm 3 m/S 745 mmHg 93%
    23:00 +18°C° 0.4 mm 3 m/S 745 mmHg 95%

    29 Mai, Mittwoch

    Zeit Temperatur Niederschläge Wind Luftdruck Luftfeuchtigkeit
    00:00 +18°C° 0.3 mm 3 m/S 745 mmHg 95%
    01:00 +17°C° 0.3 mm 3 m/S 744 mmHg 96%
    02:00 +17°C° 0.3 mm 3 m/S 744 mmHg 96%
    03:00 +17°C° 0 mm 4 m/S 745 mmHg 95%
    04:00 +18°C° 0 mm 4 m/S 745 mmHg 94%
    05:00 +18°C° 0 mm 4 m/S 745 mmHg 94%
    06:00 +19°C° 0 mm 5 m/S 745 mmHg 90%
    07:00 +20°C° 0 mm 5 m/S 745 mmHg 86%
    08:00 +21°C° 0 mm 5 m/S 745 mmHg 82%
    09:00 +23°C° 0 mm 5 m/S 745 mmHg 75%
    10:00 +24°C° 0 mm 6 m/S 745 mmHg 68%
    11:00 +27°C° 0 mm 6 m/S 745 mmHg 62%
    12:00 +27°C° 0 mm 6 m/S 745 mmHg 60%
    13:00 +28°C° 0 mm 6 m/S 745 mmHg 58%
    14:00 +28°C° 0 mm 6 m/S 745 mmHg 56%
    15:00 +28°C° 0 mm 5 m/S 745 mmHg 57%
    16:00 +27°C° 0 mm 5 m/S 745 mmHg 58%
    17:00 +27°C° 0 mm 4 m/S 745 mmHg 60%
    18:00 +25°C° 0 mm 4 m/S 745 mmHg 64%
    19:00 +22°C° 0 mm 4 m/S 745 mmHg 67%
    20:00 +20°C° 0 mm 4 m/S 745 mmHg 71%
    21:00 +20°C° 0 mm 4 m/S 745 mmHg 74%
    22:00 +20°C° 0 mm 4 m/S 746 mmHg 77%
    23:00 +19°C° 0 mm 4 m/S 746 mmHg 80%

    30 Mai, Donnerstag

    Zeit Temperatur Niederschläge Wind Luftdruck Luftfeuchtigkeit
    00:00 +19°C° 0 mm 4 m/S 746 mmHg 83%
    01:00 +19°C° 0 mm 4 m/S 746 mmHg 85%
    02:00 +19°C° 0 mm 4 m/S 746 mmHg 88%
    03:00 +19°C° 0 mm 4 m/S 746 mmHg 88%
    04:00 +19°C° 0 mm 4 m/S 746 mmHg 88%
    05:00 +20°C° 0 mm 4 m/S 746 mmHg 88%
    06:00 +21°C° 0 mm 5 m/S 746 mmHg 83%
    07:00 +22°C° 0 mm 5 m/S 746 mmHg 79%
    08:00 +23°C° 0 mm 5 m/S 746 mmHg 75%
    09:00 +26°C° 0 mm 6 m/S 746 mmHg 69%
    10:00 +27°C° 0 mm 6 m/S 746 mmHg 63%
    11:00 +28°C° 0 mm 6 m/S 746 mmHg 57%
    12:00 +28°C° 0 mm 6 m/S 746 mmHg 55%
    13:00 +29°C° 0 mm 6 m/S 746 mmHg 54%
    14:00 +29°C° 0 mm 6 m/S 745 mmHg 53%
    15:00 +28°C° 0 mm 5 m/S 745 mmHg 56%
    16:00 +27°C° 0 mm 4 m/S 745 mmHg 60%
    17:00 +27°C° 0 mm 4 m/S 744 mmHg 64%
    18:00 +25°C° 0.4 mm 4 m/S 745 mmHg 70%
    19:00 +23°C° 0.4 mm 4 m/S 745 mmHg 75%
    20:00 +21°C° 0.4 mm 4 m/S 745 mmHg 81%
    21:00 +20°C° 0.2 mm 4 m/S 745 mmHg 84%
    22:00 +19°C° 0.2 mm 4 m/S 745 mmHg 88%
    23:00 +19°C° 0.2 mm 3 m/S 745 mmHg 91%

    31 Mai, Freitag

    Zeit Temperatur Niederschläge Wind Luftdruck Luftfeuchtigkeit
    00:00 +18°C° 0.3 mm 3 m/S 745 mmHg 93%
    01:00 +18°C° 0.3 mm 3 m/S 746 mmHg 95%
    02:00 +17°C° 0.3 mm 2 m/S 746 mmHg 97%
    03:00 +17°C° 0.3 mm 3 m/S 746 mmHg 96%
    04:00 +16°C° 0.3 mm 3 m/S 746 mmHg 95%
    05:00 +14°C° 0.3 mm 4 m/S 747 mmHg 94%
    06:00 +14°C° 0 mm 3 m/S 747 mmHg 92%
    07:00 +14°C° 0 mm 3 m/S 747 mmHg 89%
    08:00 +15°C° 0 mm 2 m/S 748 mmHg 87%
    09:00 +17°C° 0 mm 2 m/S 748 mmHg 81%
    10:00 +18°C° 0 mm 2 m/S 748 mmHg 75%
    11:00 +19°C° 0 mm 2 m/S 748 mmHg 69%
    12:00 +21°C° 0 mm 1 m/S 748 mmHg 66%
    13:00 +22°C° 0 mm 1 m/S 747 mmHg 62%
    14:00 +23°C° 0 mm 1 m/S 747 mmHg 59%
    15:00 +23°C° 0 mm 1 m/S 747 mmHg 61%
    16:00 +22°C° 0 mm 1 m/S 747 mmHg 63%
    17:00 +22°C° 0 mm 1 m/S 747 mmHg 66%
    18:00 +21°C° 0 mm 1 m/S 747 mmHg 71%
    19:00 +19°C° 0 mm 1 m/S 746 mmHg 76%
    20:00 +18°C° 0 mm 1 m/S 746 mmHg 81%
    21:00 +16°C° 0 mm 1 m/S 746 mmHg 82%
    22:00 +15°C° 0 mm 1 m/S 746 mmHg 84%
    23:00 +15°C° 0 mm 1 m/S 746 mmHg 85%
    Mehr zeigen